FW7665 Weather Reports


time (UTC)temp
C
wind
direction
speed
KPH
gust
KPH
rain 1hr
cm
rain 24hr
cm
rain mn
cm
humidity
%
barometer
mb
20210801190004 16 81 0.0 3.2 0.00 1.98 0.00 56 1034.5
20210801185403 16 0 0.0 0.0 0.00 1.98 0.00 53 1034.5
20210801184504 15 0 0.0 0.0 0.00 1.98 0.00 63 1034.5
20210801183603 16 0 0.0 0.0 0.00 2.01 0.00 69 1035.1
20210801182703 15 0 0.0 0.0 0.00 2.06 0.00 72 1035.1
20210801181803 16 0 0.0 0.0 0.00 2.08 0.00 62 1035.1
20210801180903 16 0 0.0 0.0 0.00 2.13 0.00 70 1035.1
20210801180003 16 81 0.0 1.6 0.00 2.18 0.00 60 1035.1
20210801175403 16 81 0.0 1.6 0.00 2.18 0.00 66 1035.1
20210801174504 15 0 0.0 0.0 0.00 2.18 0.00 73 1035.1
20210801173603 15 0 0.0 0.0 0.00 2.18 0.00 79 1035.3
20210801172703 13 0 0.0 0.0 0.00 2.18 0.00 81 1035.3
20210801171803 13 0 0.0 0.0 0.00 2.18 0.00 83 1035.3
20210801170903 14 0 0.0 0.0 0.00 2.18 0.00 81 1035.3
20210801170003 15 0 0.0 0.0 0.00 2.18 0.00 56 1035.3
20210801165403 15 0 0.0 0.0 0.00 2.18 0.00 70 1035.3
20210801164503 13 0 0.0 0.0 0.00 2.18 0.00 68 1035.3
20210801163603 12 0 0.0 0.0 0.00 2.18 0.00 86 1035.2
20210801162707 12 0 0.0 0.0 0.00 2.18 0.00 84 1035.2
20210801161807 12 0 0.0 0.0 0.00 2.18 0.00 86 1035.2
20210801160907 12 0 0.0 0.0 0.00 2.18 0.00 87 1035.2
20210801160007 12 0 0.0 0.0 0.00 2.18 0.00 88 1035.2
20210801155407 12 0 0.0 0.0 0.00 2.18 0.00 88 1035.2
20210801154507 12 0 0.0 0.0 0.00 2.18 0.00 88 1035.2
20210801153607 12 0 0.0 0.0 0.00 2.18 0.00 87 1035.5
20210801152708 12 0 0.0 0.0 0.00 2.18 0.00 89 1035.5
20210801151807 11 0 0.0 0.0 0.00 2.18 0.00 89 1035.5
20210801150907 11 0 0.0 0.0 0.00 2.18 0.00 89 1035.5
20210801150008 11 0 0.0 0.0 0.00 2.18 0.00 89 1035.5
20210801145407 11 0 0.0 0.0 0.00 2.18 0.00 89 1035.5
20210801144507 10 0 0.0 0.0 0.00 2.18 0.00 89 1035.5
20210801143607 10 0 0.0 0.0 0.00 2.18 0.00 89 1035.3
20210801142707 10 0 0.0 0.0 0.00 2.18 0.00 89 1035.3
20210801141807 10 0 0.0 0.0 0.00 2.18 0.00 89 1035.3
20210801140907 10 0 0.0 0.0 0.00 2.18 0.00 89 1035.3
20210801140007 9 0 0.0 0.0 0.00 2.18 0.00 89 1035.3
20210801135407 9 0 0.0 0.0 0.00 2.18 0.00 89 1035.3
20210801134506 9 0 0.0 0.0 0.00 2.18 0.00 89 1035.3
20210801133606 10 0 0.0 0.0 0.00 2.18 0.00 89 1034.9
20210801132707 10 0 0.0 0.0 0.00 2.18 0.00 89 1034.9
20210801131806 10 0 0.0 0.0 0.00 2.18 0.00 89 1034.9
20210801130907 10 0 0.0 0.0 0.00 2.18 0.00 89 1034.9
20210801130006 10 0 0.0 0.0 0.00 2.18 0.00 89 1034.9
20210801125407 10 0 0.0 0.0 0.00 2.18 0.00 89 1034.9
20210801124507 10 0 0.0 0.0 0.00 2.18 0.00 89 1034.9
20210801123607 10 0 0.0 0.0 0.00 2.18 0.00 89 1034.7
20210801122706 10 0 0.0 0.0 0.00 2.18 0.00 89 1034.7
20210801121807 10 0 0.0 0.0 0.00 2.18 0.00 89 1034.7
20210801120906 10 0 0.0 0.0 0.00 2.18 0.00 89 1034.7
20210801120006 10 0 0.0 0.0 0.00 2.18 0.00 89 1034.7
20210801115406 10 0 0.0 0.0 0.00 2.18 0.00 89 1034.7
20210801114506 10 0 0.0 0.0 0.00 2.18 0.00 89 1034.7
20210801113606 10 0 0.0 0.0 0.00 2.18 0.00 89 1034.4
20210801112706 10 0 0.0 0.0 0.00 2.18 0.00 89 1034.4
20210801111806 10 0 0.0 0.0 0.00 2.18 0.00 89 1034.4
20210801110906 10 0 0.0 0.0 0.00 2.18 0.00 89 1034.4
20210801110006 10 0 0.0 0.0 0.00 2.18 0.00 89 1034.4
20210801105406 10 0 0.0 0.0 0.00 2.18 0.00 89 1034.4
20210801104506 10 0 0.0 0.0 0.00 2.18 0.00 89 1034.4
20210801103606 10 0 0.0 0.0 0.00 2.18 0.00 89 1034.4
20210801102706 10 0 0.0 0.0 0.00 2.18 0.00 89 1034.4
20210801101806 10 0 0.0 0.0 0.00 2.18 0.00 89 1034.4
20210801100906 10 0 0.0 0.0 0.00 2.18 0.00 89 1034.4
20210801100006 10 0 0.0 0.0 0.00 2.18 0.00 89 1034.4
20210801095406 10 0 0.0 0.0 0.00 2.18 0.00 89 1034.4
20210801094506 10 0 0.0 0.0 0.00 2.18 0.00 89 1034.4
20210801093606 10 0 0.0 0.0 0.00 2.18 0.00 89 1034.4
20210801092706 10 84 0.0 1.6 0.00 2.18 0.00 88 1034.4
20210801091806 10 0 0.0 0.0 0.00 2.18 0.00 88 1034.4
20210801090906 10 0 0.0 0.0 0.00 2.18 0.00 88 1034.4
20210801090006 10 0 0.0 0.0 0.00 2.18 0.00 88 1034.4
20210801085406 10 0 0.0 0.0 0.00 2.18 0.00 88 1034.4
20210801084506 10 0 0.0 0.0 0.00 2.18 0.00 88 1034.4
20210801083606 11 0 0.0 0.0 0.00 2.18 0.00 88 1034.4
20210801082705 11 0 0.0 0.0 0.00 2.18 0.00 88 1034.4
20210801081806 11 0 0.0 0.0 0.00 2.21 0.00 88 1034.4
20210801080906 11 0 0.0 0.0 0.00 2.21 0.00 88 1034.6
20210801080006 11 0 0.0 0.0 0.00 2.21 0.00 88 1035.5
20210801075406 11 0 0.0 0.0 0.00 2.21 0.00 88 1035.5
20210801074506 11 0 0.0 0.0 0.00 2.21 0.00 88 1035.5
20210801073606 11 0 0.0 0.0 0.00 2.21 0.00 88 1035.5
20210801072706 11 0 0.0 0.0 0.00 2.21 0.00 88 1035.5
20210801071805 11 0 0.0 0.0 0.00 2.21 0.00 88 1035.5
20210801070906 11 0 0.0 0.0 0.00 2.21 0.00 88 1035.5
20210801070006 11 0 0.0 0.0 0.00 2.21 0.00 88 1035.5
20210801065405 11 0 0.0 0.0 0.00 2.21 0.00 88 1035.5
20210801064505 11 0 0.0 0.0 0.00 2.21 0.00 88 1035.5
20210801063606 11 0 0.0 0.0 0.00 2.21 0.00 88 1035.5
20210801062706 11 0 0.0 0.0 0.00 2.21 0.00 88 1035.5
20210801061805 11 0 0.0 0.0 0.00 2.21 0.00 88 1035.5
20210801060905 11 0 0.0 0.0 0.00 2.21 0.00 88 1035.5
20210801060007 11 0 0.0 0.0 0.00 2.21 0.00 88 1035.2
20210801055406 11 0 0.0 0.0 0.00 2.24 2.21 88 1035.2
20210801054505 11 0 0.0 0.0 0.00 2.24 2.21 88 1035.2
20210801053605 11 84 0.0 1.6 0.00 2.26 2.21 88 1035.2
20210801052705 11 0 0.0 0.0 0.00 2.26 2.21 88 1035.2
20210801051805 11 0 0.0 0.0 0.00 2.31 2.21 88 1035.2
20210801050905 11 0 0.0 0.0 0.00 2.41 2.21 88 1035.2
20210801050005 11 0 0.0 0.0 0.00 2.51 2.21 88 1035.1
20210801045405 11 0 0.0 0.0 0.00 2.57 2.21 88 1035.1
20210801044505 12 0 0.0 0.0 0.00 2.62 2.21 88 1035.1
20210801043605 12 0 0.0 0.0 0.00 2.67 2.21 88 1035.1
20210801042705 12 0 0.0 0.0 0.00 2.74 2.21 88 1035.1
20210801041805 12 0 0.0 0.0 0.00 2.82 2.21 88 1035.1
20210801040905 12 0 0.0 0.0 0.00 2.92 2.21 88 1035.1
20210801040005 12 0 0.0 0.0 0.00 3.07 2.21 88 1034.8
20210801035406 12 0 0.0 0.0 0.00 3.20 2.21 88 1034.8
20210801034505 12 0 0.0 0.0 0.00 3.25 2.21 88 1034.8
20210801033605 12 0 0.0 0.0 0.00 3.25 2.21 87 1034.8
20210801032705 12 0 0.0 0.0 0.00 3.25 2.21 87 1034.8
20210801031805 12 0 0.0 0.0 0.00 3.25 2.21 87 1034.8
20210801030905 12 0 0.0 0.0 0.00 3.25 2.21 87 1034.8
20210801030005 12 0 0.0 0.0 0.00 3.25 2.21 87 1033.8
20210801025406 12 0 0.0 0.0 0.00 3.25 2.21 87 1033.8
20210801024505 12 0 0.0 0.0 0.00 3.25 2.21 87 1033.8
20210801023605 12 0 0.0 0.0 0.03 3.25 2.21 87 1033.8
20210801022705 12 0 0.0 0.0 0.03 3.25 2.21 87 1033.8
20210801021805 12 0 0.0 0.0 0.03 3.25 2.21 87 1033.8
20210801020905 12 0 0.0 0.0 0.03 3.25 2.21 87 1033.8
20210801020005 13 0 0.0 0.0 0.03 3.25 2.21 87 1033.8
20210801015405 13 0 0.0 0.0 0.05 3.25 2.21 87 1033.8
20210801014505 13 0 0.0 0.0 0.05 3.25 2.21 87 1033.8
20210801013604 13 0 0.0 0.0 0.05 3.23 2.18 87 1033.8
20210801012705 13 0 0.0 0.0 0.05 3.23 2.18 87 1033.8
20210801011805 13 0 0.0 0.0 0.08 3.23 2.18 87 1033.8
20210801010904 13 0 0.0 0.0 0.10 3.23 2.18 87 1033.8
20210801010005 13 0 0.0 0.0 0.13 3.23 2.18 87 1033.8
20210801005405 13 0 0.0 0.0 0.13 3.20 2.16 87 1033.8
20210801004505 13 0 0.0 0.0 0.15 3.20 2.16 87 1033.8
20210801003605 13 0 0.0 0.0 0.18 3.17 2.13 87 1033.8
20210801002704 13 0 0.0 0.0 0.20 3.17 2.13 87 1033.8
20210801001804 13 0 0.0 0.0 0.25 3.15 2.11 87 1033.8
20210801000904 13 0 0.0 0.0 0.33 3.12 2.08 87 1033.8
20210801000005 13 0 0.0 0.0 0.41 3.10 2.06 87 1033.8
20210731235404 13 0 0.0 0.0 0.43 3.07 2.03 87 1033.8
20210731234504 13 0 0.0 0.0 0.56 3.05 2.01 87 1033.8
20210731233604 13 0 0.0 0.0 0.58 3.00 1.96 87 1033.8
20210731232704 13 0 0.0 0.0 0.61 2.97 1.93 87 1033.8
20210731231804 13 0 0.0 0.0 0.56 2.90 1.85 87 1033.8
20210731230905 13 84 0.0 3.2 0.48 2.79 1.75 86 1033.8
20210731230004 13 0 0.0 0.0 0.43 2.69 1.65 86 1033.8
20210731225404 13 0 0.0 0.0 0.41 2.64 1.60 86 1033.8
20210731224504 13 0 0.0 0.0 0.30 2.49 1.45 86 1033.8
20210731223604 14 0 0.0 0.0 0.28 2.41 1.37 86 1033.8
20210731222704 14 0 0.0 0.0 0.25 2.36 1.32 86 1033.8
20210731221804 14 0 0.0 0.0 0.25 2.34 1.30 86 1033.8
20210731220905 14 0 0.0 0.0 0.23 2.31 1.27 86 1033.8
20210731220004 14 84 0.0 1.6 0.20 2.26 1.22 86 1033.8
20210731215404 14 84 0.0 1.6 0.20 2.24 1.19 86 1033.8
20210731214504 14 0 0.0 0.0 0.23 2.18 1.14 86 1033.8
20210731213604 14 0 0.0 0.0 0.25 2.13 1.09 86 1033.8
20210731212704 14 0 0.0 0.0 0.28 2.11 1.07 86 1033.8
20210731211804 13 0 0.0 0.0 0.28 2.08 1.04 86 1033.8
20210731210904 13 0 0.0 0.0 0.41 2.08 1.04 86 1033.8
20210731210004 13 84 0.0 1.6 0.48 2.06 1.02 86 1033.8
20210731205404 13 84 0.0 1.6 0.58 2.03 0.99 86 1033.8
20210731204504 13 84 0.0 1.6 0.64 1.96 0.91 86 1033.8
20210731203604 13 0 0.0 0.0 0.61 1.88 0.84 86 1033.8
20210731202704 13 0 0.0 0.0 0.56 1.83 0.79 86 1033.8
20210731201804 13 0 0.0 0.0 0.53 1.80 0.76 86 1033.8
20210731200904 13 0 0.0 0.0 0.41 1.68 0.64 86 1033.8
20210731200004 14 84 0.0 3.2 0.30 1.57 0.53 86 1033.4
20210731195404 14 84 0.0 3.2 0.18 1.45 0.41 85 1033.4
20210731194504 15 84 0.0 4.8 0.05 1.32 0.28 85 1033.4
20210731193604 15 53 0.0 4.8 0.03 1.27 0.23 85 1033.4
20210731192704 15 53 0.0 4.8 0.08 1.27 0.23 85 1033.4
20210731191803 15 0 0.0 0.0 0.10 1.27 0.23 84 1033.4
20210731190904 16 53 0.0 3.2 0.15 1.27 0.23 84 1033.4